Weather History for Nairobi Jomo, Kenya

Change the Weather History Date:

Friday, October 12, 2012

  Actual Average (HKNW) Record (HKNW)
Temperature  
Mean Temperature 68 °F -  
Max Temperature 77 °F 73 °F 80 °F (2004)
Min Temperature 60 °F 60 °F 48 °F (1997)
Cooling Degree Days 4    
Growing Degree Days 18 (Base 50)    
Moisture  
Dew Point 58 °F    
Average Humidity 68    
Maximum Humidity 88    
Minimum Humidity 47    
Precipitation  
Precipitation 0.00 in - - ()
Sea Level Pressure  
Sea Level Pressure 30.13 in    
Wind  
Wind Speed 8 mph ()    
Max Wind Speed 22 mph    
Max Gust Speed -    
Visibility 6.8 miles    
Events      
Averages and records for this station are not official NWS values.
T = Trace of Precipitation, MM = Missing Value Source: Averaged Metar Reports

Daily Weather History Graph

Daily Weather History Graph

Search for Another Location

Airport:

Trip Planner

Search our weather history database for the weather conditions in past years. The results will help you decide how hot, cold, wet, or windy it might be!

Date:

Astronomy

Oct. 12, 2012 Rise Set
Actual Time 6:14 AM EAT 6:22 PM EAT
Civil Twilight 5:53 AM EAT 6:43 PM EAT
Nautical Twilight 5:29 AM EAT 7:07 PM EAT
Astronomical Twilight 5:05 AM EAT 7:32 PM EAT
Moon 3:20 AM EAT (10/12) 3:43 PM EAT (10/12)
Length of Visible Light 12h 49m
Length of Day
12h 08m
Waning Crescent, 13% of the Moon is Illuminated
Oct 12
Waning Crescent
Oct 15
New
Oct 22
First Quarter
Oct 29
Full
Nov 7
Last Quarter

Hourly Weather History & Observations

Time (EAT) Temp. Dew Point Humidity Pressure Visibility Wind Dir Wind Speed Gust Speed Precip Events Conditions
12:00 AM 64.4 °F 60.8 °F 88% 30.15 in 6.2 mi SE 9.2 mph - N/A   Scattered Clouds
3:00 AM 63 °F 60 °F 85%  in 12 mi South 4.6 mph - -   Partly Cloudy
3:00 AM 62.6 °F 59.0 °F 88% 30.12 in 6.2 mi South 4.6 mph - N/A   Scattered Clouds
4:00 AM 62.6 °F 59.0 °F 88% 30.15 in 6.2 mi SE 4.6 mph - N/A   Scattered Clouds
5:00 AM 62.6 °F 59.0 °F 88% 30.15 in 6.2 mi SE 3.5 mph - N/A   Scattered Clouds
8:00 AM 62.6 °F 59.0 °F 88% 30.21 in 6.2 mi SE 11.5 mph - N/A   Mostly Cloudy
9:00 AM 67 °F 58 °F 66%  in 12 mi East 6.9 mph - -   Mostly Cloudy
9:00 AM 68.0 °F 59.0 °F 73% 30.18 in 6.2 mi East 6.9 mph - N/A   Mostly Cloudy
10:00 AM 69.8 °F 59.0 °F 68% 30.21 in 6.2 mi ENE 3.5 mph - N/A   Scattered Clouds
11:00 AM 75.2 °F 59.0 °F 57% 30.18 in 6.2 mi East 10.4 mph - N/A   Mostly Cloudy
12:00 PM 75.2 °F 53.6 °F 47% 30.18 in 6.2 mi East 6.9 mph - N/A   Mostly Cloudy
1:00 PM 75.2 °F 57.2 °F 53% 30.12 in 6.2 mi ENE 12.7 mph - N/A   Mostly Cloudy
2:00 PM 75.2 °F 57.2 °F 53% 30.09 in 6.2 mi East 21.9 mph - N/A   Mostly Cloudy
3:00 PM 77.0 °F 57.2 °F 50% 30.06 in 6.2 mi East 13.8 mph - N/A   Mostly Cloudy
4:00 PM 75.2 °F 57.2 °F 53% 30.04 in 6.2 mi ESE 12.7 mph - N/A   Mostly Cloudy
5:00 PM 77.0 °F 55.4 °F 47% 30.06 in 6.2 mi East 13.8 mph - N/A   Mostly Cloudy
6:00 PM 75.2 °F 55.4 °F 50% 30.06 in 6.2 mi East 16.1 mph - N/A   Scattered Clouds
7:00 PM 73.4 °F 57.2 °F 57% 30.09 in 6.2 mi East 16.1 mph - N/A   Scattered Clouds
8:00 PM 69.8 °F 57.2 °F 64% 30.12 in 6.2 mi East 13.8 mph - N/A   Scattered Clouds
10:00 PM 66.2 °F 55.4 °F 68% 30.18 in 6.2 mi ENE 8.1 mph - N/A   Partly Cloudy
11:00 PM 64.4 °F 60.8 °F 88% 30.21 in 6.2 mi ENE 15.0 mph - N/A   Partly Cloudy